Location: Ch?marru
(16.6434°N, 80.1310°E)
Time: 15:59:30
(UTC+00:00)

Daily predictions for brighter satellites

Satellite Brightness Start Highest point End
(mag) Time Altitude Azimuth Time Altitude Azimuth Time Altitude Azimuth
Atlas Centaur 2 4.2 12:29:05 10° SW 12:30:17 11° SW 12:31:28 10° SSW
Meteor 1-10 Rocket 4.3 12:24:43 10° S 12:30:32 70° E 12:36:14 10° NNE
Cosmos 1666 Rocket 3.7 12:26:58 10° N 12:31:13 49° E 12:35:25 10° SSE
Centaur D-1A AC-32 3.5 12:28:29 10° WNW 12:33:28 29° N 12:36:41 10° ENE
SL-27 R/B 4.5 12:33:27 10° ESE 12:34:39 11° E 12:35:51 10° ENE
Genesis I 3.3 12:32:00 10° SSW 12:35:42 57° ESE 12:39:30 10° NNE
CORIOLIS 4.3 12:35:25 10° S 12:40:47 83° WSW 12:46:12 10° NNW
deb Chang Zheng 4 4.3 12:40:59 10° SE 12:44:42 29° ENE 12:48:26 10° NNE
Cosmos 1697 Rocket 3.4 12:39:14 10° NNW 12:44:43 59° WSW 12:50:13 10° S
Cosmos 1666 2.5 12:41:45 10° N 12:45:26 72° E 12:49:07 10° S
SKYMED 2 4.2 12:44:09 10° N 12:48:24 57° WNW 12:52:38 10° SSW
USA 229 DEB 4.2 12:40:42 10° NNW 12:48:28 82° WSW 12:56:25 10° SSE
USA 229 4.2 12:40:48 10° NNW 12:48:34 83° WSW 12:56:30 10° SSE
Cosmos 1980 Rocket 2.1 12:44:56 10° N 12:50:30 66° ENE 12:56:02 10° SSE
NOSS 3-3 (A) 4.0 12:45:44 10° SSW 12:51:02 67° WNW 12:56:42 10° NNE
NOSS 3-3 (C) 4.0 12:45:49 10° SSW 12:51:08 68° WNW 12:56:49 10° NNE
PSLV R/B 3.8 12:47:40 10° S 12:51:20 76° W 12:54:59 10° NNW
DMSP B5D2-2 4.5 12:47:09 10° NNE 12:52:05 43° E 12:57:02 10° S
Aurora 2 Rocket 3.0 12:49:47 10° WNW 12:54:18 68° NNE 13:00:33 11° ESE
ARGOS 3.5 12:51:25 10° SE 12:56:30 42° ENE 13:01:33 10° N
Cosmos 773 Rocket 4.5 12:53:34 10° S 12:58:29 41° E 13:02:53 13° NE
CZ-4 R/B 3.6 12:56:35 10° ESE 12:56:37 10° ESE 12:56:37 10° ESE
Cosmos 2369 4.0 12:53:39 10° NNW 12:59:20 73° WSW 13:04:59 10° S
H-2A R/B 2.0 12:54:22 10° SSE 12:59:38 89° ENE 13:04:46 10° NNW
H-2A R/B 3.2 12:57:23 16° NE 12:59:50 26° E 13:03:31 10° SSE
Cosmos 1515 4.2 12:56:47 10° SSE 13:00:14 36° E 13:02:47 16° NNE
Cosmos 1515 Rocket 4.3 12:57:29 10° SSW 13:01:52 57° W 13:06:13 10° N
Cosmos 2228 Rocket 3.6 12:58:31 10° SSE 13:02:32 36° E 13:05:41 15° NNE
CZ-4C R/B 3.3 13:02:08 10° N 13:05:28 64° WNW 13:08:53 10° SSW
SL-16 R/B 3.9 13:02:26 10° NNE 13:03:45 14° NE 13:03:45 14° NE
USA 32 3.9 13:01:03 10° S 13:06:15 77° E 13:11:27 10° N
GPS 2-15 Rocket1 3.0 13:04:10 10° WNW 13:08:52 78° N 13:11:38 24° E
BREEZE-M DEB (TANK) 3.2 13:06:17 10° WSW 13:10:39 40° NW 13:12:27 18° NNE
DMSP B5D1-3 4.4 13:09:34 10° NNE 13:14:40 72° ESE 13:19:44 10° S
YAOGAN 3 4.4 13:12:27 10° SSE 13:16:47 73° ENE 13:21:06 10° N
BREEZE M DEB (TANK) 3.5 13:08:44 10° NNW 13:18:02 39° NNE 13:19:28 31° ENE
Cosmos 1125 Rocket 4.0 13:16:28 10° N 13:21:14 34° ENE 13:26:00 10° SE
CZ-4 R/B 4.3 13:17:45 10° SSE 13:21:52 83° ENE 13:25:58 10° N
Cosmos 2278 3.7 13:16:36 10° NNW 13:22:18 88° WSW 13:27:56 10° SSE
GPS 2-04 Rocket1 4.4 13:23:37 10° NNW 13:25:52 20° N 13:25:52 20° N
Cosmos 1356 Rocket 3.4 13:23:33 10° N 13:27:45 59° E 13:31:58 10° SSE
Cosmos 1544 3.0 13:24:13 10° N 13:27:50 87° W 13:31:29 10° S
SL-08 RB Rocket 3.6 13:23:50 10° SSE 13:28:26 67° ENE 13:33:02 10° N
YAOGAN 1 3.1 13:24:43 10° SSE 13:28:01 38° ESE 13:28:01 38° ESE
CZ-4C R/B 3.1 13:22:21 10° NNW 13:30:33 65° ENE 13:39:12 10° SE
Hubble Space Telescope 3.2 13:32:10 10° SSE 13:33:06 11° SSE 13:33:06 11° SSE
CZ-4B R/B 3.7 13:28:10 10° S 13:33:34 60° WSW 13:38:52 10° NNW
Cosmos 1707 Rocket 4.5 13:29:58 10° SSE 13:32:42 30° SE 13:32:42 30° SE
Cosmos 2266 Rocket 4.1 13:30:58 10° N 13:37:22 80° W 13:43:44 10° S
Okean 1 3.4 13:47:04 10° S 13:50:56 74° WSW 13:50:56 74° WSW
Okean O Rocket 3.3 13:50:55 10° SSW 13:54:55 33° W 13:58:56 10° NW
SWIFT 3.4 13:52:58 10° W 13:56:53 37° SSW 13:57:08 37° S
GPS 2-12 Rocket1 3.5 13:56:02 10° W 13:59:41 55° WNW 13:59:41 55° WNW
Delta 198 4.4 13:58:26 10° WNW 14:04:57 72° NNE 14:05:22 70° NE
DELTA-4 R/B 3.9 14:02:39 10° WSW 14:08:29 35° S 14:08:29 35° S
ATLAS 5 CENTAUR R/B 2.3 14:13:06 10° W 14:19:06 43° WNW 14:19:06 43° WNW
USA 234 4.0 14:31:28 41° NNW 14:31:28 41° NNW 14:35:27 10° NNW
CZ-3C R/B 3.4 14:25:50 10° SSW 15:18:20 - ENE 23:00:11 10° ESE
CZ-4 R/B 3.9 14:30:21 10° SSW 14:32:36 21° WSW 14:32:36 21° WSW
Aurora 2 Rocket 4.4 14:42:20 10° W 14:46:58 44° SW 14:46:58 44° SW
ATLAS 3B CENTAUR R/B 4.4 14:45:20 10° WNW 15:04:02 60° N 15:04:02 60° N
Cosmos 2082 Rocket 4.4 22:03:57 18° SE 22:03:57 18° SE 22:05:24 10° SSE
Cosmos 2034 Rocket 4.0 22:43:39 77° NE 22:44:02 82° E 22:50:23 10° S
Milstar 3 4.4 22:42:21 45° W 22:48:07 65° SW 22:58:05 10° SE
Cosmos 1814 Rocket 4.2 22:52:14 63° SSE 22:52:14 63° SSE 22:56:34 10° SSE
IUS-1 SRM-2 4.5 22:55:10 21° NE 22:55:10 21° NE 22:59:20 10° ENE
Cosmos 1570 Rocket 4.0 22:56:02 78° ENE 22:56:08 78° ENE 23:01:26 10° SSE
NATO 3D Rocket 3.9 22:58:34 52° NNE 22:58:34 52° NNE 23:04:18 10° E
ATLAS 3B R/B 2.6 22:52:28 10° SSW 22:58:51 74° ESE 23:05:22 10° NNE
YAOGAN 6 4.3 22:59:46 22° NE 23:01:19 32° E 23:04:31 10° SSE
SJ 16-02 2.9 23:00:34 10° SSE 23:04:34 35° E 23:08:33 10° NE
Meteor 2-13 Rocket 4.3 22:58:47 10° SSW 23:04:51 69° W 23:06:37 46° NNW
GPS 2-17 Rocket1 3.1 23:11:03 62° S 23:11:13 63° SSE 23:15:37 10° E
Delta 168 3.8 23:17:04 47° NNW 23:17:31 48° N 23:24:10 10° ENE
Cosmos 1933 4.5 23:20:04 31° SSW 23:20:04 31° SSW 23:22:19 10° S
SJ-12 4.2 23:17:21 10° NNE 23:21:27 67° E 23:25:32 10° S
Cosmos 1241 Rocket 4.5 23:18:33 25° NNW 23:22:19 78° ENE 23:28:33 10° SSE
Cosmos 1777 Rocket 4.0 23:17:50 10° S 23:23:00 81° ESE 23:28:13 10° NNE
Meteor 1-26 Rocket 4.1 23:19:52 20° N 23:23:54 82° W 23:29:26 10° S
APEX 3.7 23:28:33 44° SW 23:28:33 44° SW 23:32:19 10° S
Cosmos 921 Rocket 3.2 23:27:06 22° N 23:29:55 74° ENE 23:34:25 10° SSE
Gbstr 26 Del rocket 2.8 23:31:55 45° NW 23:33:09 89° NE 23:37:53 10° SE
Cosmos 2208 Rocket 4.2 23:32:50 35° NW 23:34:41 50° WSW 23:39:45 10° S
H-2A R/B 2.6 23:34:09 10° N 23:37:54 68° WNW 23:41:42 10° SSW
BREEZE-M R/B 4.2 23:41:21 19° SW 23:41:31 20° SW 23:44:47 10° S
Hubble Space Telescope 1.2 23:40:31 36° WSW 23:41:46 50° SSW 23:45:44 10° SE
Cosmos 1867 3.9 23:40:17 30° WNW 23:42:22 44° WSW 23:47:28 10° S
OAO 3 Rocket 3.2 23:41:04 33° WNW 23:43:17 77° SW 23:48:14 10° SE
MOS 1-B Rocket 4.5 23:37:34 10° SSE 23:44:23 67° ENE 23:50:18 10° N
Meteor 1-31 Rocket 2.6 23:43:02 10° N 23:46:56 77° W 23:50:50 10° SSW
Cosmos 1151 Rocket 2.9 23:43:01 10° N 23:47:23 89° W 23:51:43 10° S
TSX-5 3.7 23:50:44 13° NNW 23:54:40 83° WSW 23:58:15 10° SSE
